| time (UTC) | temp F | wind direction | speed MPH | gust MPH | rain 1hr in | rain 24hr in | rain mn in | humidity % | barometer mb |
| 20260510201017 | 99 | 352 | 6.0 | 11.0 | 0.00 | 0.00 | 0.00 | ||
| 20260510200459 | 99 | 329 | 4.0 | 8.0 | 0.00 | 0.00 | 0.00 | ||
| 20260510200002 | 99 | 308 | 4.0 | 10.0 | 0.00 | 0.00 | 0.00 | ||
| 20260510195502 | 99 | 357 | 3.0 | 12.0 | 0.00 | 0.00 | 0.00 | ||
| 20260510195007 | 99 | 0 | 4.0 | 13.0 | 0.00 | 0.00 | 0.00 | ||
| 20260510194458 | 99 | 9 | 4.0 | 14.0 | 0.00 | 0.00 | 0.00 | ||
| 20260510194000 | 99 | 352 | 6.0 | 14.0 | 0.00 | 0.00 | 0.00 | ||
| 20260510193501 | 98 | 358 | 9.0 | 13.0 | 0.00 | 0.00 | 0.00 | ||
| 20260510192505 | 98 | 358 | 6.0 | 15.0 | 0.00 | 0.00 | 0.00 | ||
| 20260510192007 | 98 | 333 | 7.0 | 15.0 | 0.00 | 0.00 | 0.00 | ||
| 20260510191458 | 98 | 0 | 2.0 | 13.0 | 0.00 | 0.00 | 0.00 | ||
| 20260510190501 | 98 | 358 | 11.0 | 17.0 | 0.00 | 0.00 | 0.00 | ||
| 20260510190001 | 97 | 352 | 4.0 | 14.0 | 0.00 | 0.00 | 0.00 | ||
| 20260510185504 | 97 | 359 | 6.0 | 15.0 | 0.00 | 0.00 | 0.00 | ||
| 20260510185007 | 97 | 359 | 7.0 | 16.0 | 0.00 | 0.00 | 0.00 | ||
| 20260510184500 | 97 | 355 | 10.0 | 15.0 | 0.00 | 0.00 | 0.00 | ||
| 20260510184000 | 96 | 340 | 6.0 | 8.0 | 0.00 | 0.00 | 0.00 | ||
| 20260510183506 | 96 | 257 | 1.0 | 12.0 | 0.00 | 0.00 | 0.00 | ||
| 20260510182508 | 95 | 291 | 1.0 | 11.0 | 0.00 | 0.00 | 0.00 | ||
| 20260510182011 | 95 | 5 | 6.0 | 11.0 | 0.00 | 0.00 | 0.00 | ||
| 20260510181503 | 95 | 355 | 5.0 | 10.0 | 0.00 | 0.00 | 0.00 | ||
| 20260510181004 | 95 | 350 | 3.0 | 12.0 | 0.00 | 0.00 | 0.00 | ||
| 20260510180504 | 94 | 356 | 5.0 | 12.0 | 0.00 | 0.00 | 0.00 | ||
| 20260510180004 | 94 | 338 | 6.0 | 12.0 | 0.00 | 0.00 | 0.00 | ||
| 20260510175503 | 94 | 350 | 7.0 | 15.0 | 0.00 | 0.00 | 0.00 | ||
| 20260510175005 | 93 | 356 | 7.0 | 15.0 | 0.00 | 0.00 | 0.00 | ||
| 20260510174458 | 93 | 327 | 6.0 | 14.0 | 0.00 | 0.00 | 0.00 | ||
| 20260510173958 | 93 | 359 | 4.0 | 12.0 | 0.00 | 0.00 | 0.00 | ||
| 20260510173005 | 92 | 5 | 7.0 | 15.0 | 0.00 | 0.00 | 0.00 | ||
| 20260510172506 | 92 | 356 | 10.0 | 17.0 | 0.00 | 0.00 | 0.00 | ||
| 20260510172011 | 91 | 357 | 8.0 | 17.0 | 0.00 | 0.00 | 0.00 | ||
| 20260510171504 | 91 | 356 | 6.0 | 17.0 | 0.00 | 0.00 | 0.00 | ||
| 20260510171006 | 91 | 341 | 6.0 | 17.0 | 0.00 | 0.00 | 0.00 | ||
| 20260510170506 | 90 | 351 | 8.0 | 12.0 | 0.00 | 0.00 | 0.00 | ||
| 20260510170008 | 90 | 343 | 4.0 | 8.0 | 0.00 | 0.00 | 0.00 | ||
| 20260510165014 | 89 | 314 | 6.0 | 8.0 | 0.00 | 0.00 | 0.00 | ||
| 20260510164508 | 88 | 111 | 1.0 | 6.0 | 0.00 | 0.00 | 0.00 | ||
| 20260510164008 | 88 | 0 | 3.0 | 9.0 | 0.00 | 0.00 | 0.00 | ||
| 20260510163509 | 87 | 318 | 4.0 | 9.0 | 0.00 | 0.00 | 0.00 | ||
| 20260510163010 | 86 | 0 | 2.0 | 5.0 | 0.00 | 0.00 | 0.00 | ||
| 20260510162510 | 86 | 0 | 2.0 | 3.0 | 0.00 | 0.00 | 0.00 | ||
| 20260510162010 | 85 | 0 | 1.0 | 3.0 | 0.00 | 0.00 | 0.00 | ||
| 20260510161505 | 85 | 0 | 1.0 | 7.0 | 0.00 | 0.00 | 0.00 | ||
| 20260510161008 | 84 | 310 | 2.0 | 7.0 | 0.00 | 0.00 | 0.00 | ||
| 20260510160512 | 84 | 0 | 3.0 | 6.0 | 0.00 | 0.00 | 0.00 | ||
| 20260510160013 | 84 | 359 | 2.0 | 2.0 | 0.00 | 0.00 | 0.00 | ||
| 20260510155456 | 83 | 0 | 0.0 | 3.0 | 0.00 | 0.00 | 0.00 | ||
| 20260510155018 | 83 | 0 | 1.0 | 3.0 | 0.00 | 0.00 | 0.00 | ||
| 20260510154507 | 83 | 0 | 0.0 | 3.0 | 0.00 | 0.00 | 0.00 | ||
| 20260510154010 | 82 | 0 | 0.0 | 3.0 | 0.00 | 0.00 | 0.00 | ||
| 20260510153014 | 81 | 0 | 1.0 | 4.0 | 0.00 | 0.00 | 0.00 | ||
| 20260510152022 | 81 | 334 | 1.0 | 4.0 | 0.00 | 0.00 | 0.00 | ||
| 20260510151515 | 80 | 334 | 2.0 | 4.0 | 0.00 | 0.00 | 0.00 | ||
| 20260510151015 | 80 | 0 | 2.0 | 5.0 | 0.00 | 0.00 | 0.00 | ||
| 20260510150457 | 79 | 355 | 1.0 | 5.0 | 0.00 | 0.00 | 0.00 | ||
| 20260510150003 | 79 | 0 | 2.0 | 3.0 | 0.00 | 0.00 | 0.00 | ||
| 20260510145505 | 79 | 0 | 0.0 | 1.0 | 0.00 | 0.00 | 0.00 | ||
| 20260510144506 | 78 | 0 | 0.0 | 3.0 | 0.00 | 0.00 | 0.00 | ||
| 20260510144005 | 77 | 0 | 0.0 | 2.0 | 0.00 | 0.00 | 0.00 | ||
| 20260510143507 | 77 | 0 | 0.0 | 2.0 | 0.00 | 0.00 | 0.00 | ||
| 20260510143009 | 76 | 0 | 0.0 | 3.0 | 0.00 | 0.00 | 0.00 | ||
| 20260510142511 | 76 | 0 | 1.0 | 3.0 | 0.00 | 0.00 | 0.00 | ||
| 20260510142003 | 76 | 0 | 1.0 | 4.0 | 0.00 | 0.00 | 0.00 | ||
| 20260510141505 | 76 | 0 | 1.0 | 7.0 | 0.00 | 0.00 | 0.00 | ||
| 20260510141005 | 75 | 0 | 1.0 | 7.0 | 0.00 | 0.00 | 0.00 | ||
| 20260510140508 | 75 | 330 | 1.0 | 4.0 | 0.00 | 0.00 | 0.00 | ||
| 20260510140005 | 75 | 345 | 1.0 | 4.0 | 0.00 | 0.00 | 0.00 | ||
| 20260510135511 | 75 | 63 | 1.0 | 7.0 | 0.00 | 0.00 | 0.00 | ||
| 20260510135014 | 74 | 2 | 3.0 | 6.0 | 0.00 | 0.00 | 0.00 | ||
| 20260510134506 | 74 | 0 | 1.0 | 5.0 | 0.00 | 0.00 | 0.00 | ||
| 20260510134006 | 74 | 327 | 2.0 | 5.0 | 0.00 | 0.00 | 0.00 | ||
| 20260510133507 | 73 | 0 | 1.0 | 3.0 | 0.00 | 0.00 | 0.00 | ||
| 20260510133005 | 73 | 0 | 0.0 | 2.0 | 0.00 | 0.00 | 0.00 | ||
| 20260510132010 | 73 | 359 | 0.0 | 3.0 | 0.00 | 0.00 | 0.00 | ||
| 20260510131501 | 73 | 0 | 0.0 | 3.0 | 0.00 | 0.00 | 0.00 | ||
| 20260510131002 | 73 | 85 | 0.0 | 3.0 | 0.00 | 0.00 | 0.00 | ||
| 20260510130503 | 73 | 0 | 1.0 | 3.0 | 0.00 | 0.00 | 0.00 | ||
| 20260510130002 | 73 | 0 | 0.0 | 1.0 | 0.00 | 0.00 | 0.00 | ||
| 20260510125505 | 73 | 150 | 0.0 | 1.0 | 0.00 | 0.00 | 0.00 | ||
| 20260510125005 | 73 | 206 | 0.0 | 1.0 | 0.00 | 0.00 | 0.00 | ||
| 20260510124527 | 74 | 173 | 0.0 | 2.0 | 0.00 | 0.00 | 0.00 | ||
| 20260510123959 | 74 | 220 | 0.0 | 2.0 | 0.00 | 0.00 | 0.00 | ||
| 20260510123003 | 74 | 78 | 0.0 | 1.0 | 0.00 | 0.00 | 0.00 | ||
| 20260510122503 | 74 | 97 | 0.0 | 1.0 | 0.00 | 0.00 | 0.00 | ||
| 20260510121001 | 75 | 154 | 0.0 | 1.0 | 0.00 | 0.00 | 0.00 | ||
| 20260510120503 | 75 | 130 | 0.0 | 1.0 | 0.00 | 0.00 | 0.00 | ||
| 20260510120004 | 75 | 58 | 0.0 | 0.0 | 0.00 | 0.00 | 0.00 | ||
| 20260510115505 | 76 | 58 | 0.0 | 2.0 | 0.00 | 0.00 | 0.00 | ||
| 20260510114526 | 77 | 0 | 0.0 | 4.0 | 0.00 | 0.00 | 0.00 | ||
| 20260510114016 | 77 | 163 | 1.0 | 4.0 | 0.00 | 0.00 | 0.00 | ||
| 20260510112010 | 77 | 345 | 0.0 | 4.0 | 0.00 | 0.00 | 0.00 | ||
| 20260510111502 | 77 | 359 | 2.0 | 4.0 | 0.00 | 0.00 | 0.00 | ||
| 20260510111004 | 77 | 109 | 0.0 | 2.0 | 0.00 | 0.00 | 0.00 | ||
| 20260510110458 | 77 | 319 | 1.0 | 2.0 | 0.00 | 0.00 | 0.00 | ||
| 20260510110001 | 77 | 350 | 0.0 | 2.0 | 0.00 | 0.00 | 0.00 | ||
| 20260510105504 | 77 | 0 | 0.0 | 2.0 | 0.00 | 0.00 | 0.00 | ||
| 20260510104528 | 78 | 0 | 0.0 | 3.0 | 0.00 | 0.00 | 0.00 | ||
| 20260510103458 | 78 | 359 | 3.0 | 4.0 | 0.00 | 0.00 | 0.00 | ||
| 20260510102503 | 78 | 46 | 0.0 | 2.0 | 0.00 | 0.00 | 0.00 | ||
| 20260510102025 | 78 | 359 | 0.0 | 0.0 | 0.00 | 0.00 | 0.00 | ||
| 20260510101018 | 79 | 0 | 0.0 | 3.0 | 0.00 | 0.00 | 0.00 | ||
| 20260510100516 | 79 | 67 | 0.0 | 2.0 | 0.00 | 0.00 | 0.00 | ||
| 20260510095957 | 79 | 351 | 1.0 | 3.0 | 0.00 | 0.00 | 0.00 | ||
| 20260510095458 | 79 | 90 | 1.0 | 3.0 | 0.00 | 0.00 | 0.00 | ||
| 20260510094523 | 80 | 327 | 2.0 | 3.0 | 0.00 | 0.00 | 0.00 | ||
| 20260510094015 | 80 | 0 | 0.0 | 2.0 | 0.00 | 0.00 | 0.00 | ||
| 20260510093515 | 80 | 0 | 0.0 | 2.0 | 0.00 | 0.00 | 0.00 | ||
| 20260510093001 | 80 | 0 | 0.0 | 2.0 | 0.00 | 0.00 | 0.00 | ||
| 20260510092503 | 80 | 0 | 0.0 | 1.0 | 0.00 | 0.00 | 0.00 | ||
| 20260510092004 | 80 | 35 | 0.0 | 1.0 | 0.00 | 0.00 | 0.00 | ||
| 20260510091525 | 81 | 209 | 0.0 | 1.0 | 0.00 | 0.00 | 0.00 | ||
| 20260510091017 | 81 | 300 | 0.0 | 3.0 | 0.00 | 0.00 | 0.00 | ||
| 20260510090514 | 81 | 287 | 1.0 | 3.0 | 0.00 | 0.00 | 0.00 | ||
| 20260510085458 | 82 | 258 | 0.0 | 5.0 | 0.00 | 0.00 | 0.00 | ||
| 20260510085020 | 82 | 0 | 0.0 | 5.0 | 0.00 | 0.00 | 0.00 | ||
| 20260510084512 | 82 | 44 | 1.0 | 5.0 | 0.00 | 0.00 | 0.00 | ||
| 20260510084010 | 82 | 175 | 0.0 | 8.0 | 0.00 | 0.00 | 0.00 | ||
| 20260510083510 | 82 | 328 | 3.0 | 8.0 | 0.00 | 0.00 | 0.00 | ||
| 20260510083011 | 82 | 340 | 1.0 | 10.0 | 0.00 | 0.00 | 0.00 | ||
| 20260510082513 | 81 | 340 | 5.0 | 10.0 | 0.00 | 0.00 | 0.00 | ||
| 20260510082015 | 81 | 307 | 6.0 | 8.0 | 0.00 | 0.00 | 0.00 | ||
| 20260510081510 | 81 | 296 | 4.0 | 7.0 | 0.00 | 0.00 | 0.00 | ||
| 20260510081009 | 81 | 0 | 1.0 | 3.0 | 0.00 | 0.00 | 0.00 | ||
| 20260510080510 | 81 | 0 | 0.0 | 3.0 | 0.00 | 0.00 | 0.00 | ||
| 20260510080011 | 81 | 0 | 1.0 | 3.0 | 0.00 | 0.00 | 0.00 | ||
| 20260510075513 | 82 | 280 | 0.0 | 3.0 | 0.00 | 0.00 | 0.00 | ||
| 20260510075016 | 82 | 304 | 1.0 | 3.0 | 0.00 | 0.00 | 0.00 | ||
| 20260510074506 | 82 | 210 | 0.0 | 1.0 | 0.00 | 0.00 | 0.00 | ||
| 20260510074005 | 82 | 209 | 0.0 | 2.0 | 0.00 | 0.00 | 0.00 | ||
| 20260510073506 | 83 | 211 | 1.0 | 2.0 | 0.00 | 0.00 | 0.00 | ||
| 20260510073006 | 83 | 217 | 0.0 | 4.0 | 0.00 | 0.00 | 0.00 | ||
| 20260510072508 | 83 | 272 | 0.0 | 4.0 | 0.00 | 0.00 | 0.00 | ||
| 20260510072009 | 83 | 344 | 0.0 | 6.0 | 0.00 | 0.00 | 0.00 | ||
| 20260510071501 | 84 | 0 | 1.0 | 6.0 | 0.00 | 0.00 | 0.00 | ||
| 20260510071005 | 84 | 178 | 1.0 | 3.0 | 0.00 | 0.00 | 0.00 | ||
| 20260510070505 | 84 | 0 | 0.0 | 1.0 | 0.00 | 0.00 | 0.00 | ||
| 20260510070005 | 84 | 262 | 0.0 | 8.0 | 0.00 | 0.00 | 0.00 | ||
| 20260510065505 | 85 | 345 | 4.0 | 7.0 | 0.00 | 0.00 | 0.00 | ||
| 20260510065004 | 85 | 274 | 0.0 | 5.0 | 0.00 | 0.00 | 0.00 | ||
| 20260510064525 | 85 | 256 | 2.0 | 5.0 | 0.00 | 0.00 | 0.00 | ||
| 20260510063516 | 85 | 0 | 2.0 | 7.0 | 0.00 | 0.00 | 0.00 | ||
| 20260510062957 | 85 | 356 | 2.0 | 5.0 | 0.00 | 0.00 | 0.00 | ||
| 20260510062457 | 85 | 0 | 3.0 | 6.0 | 0.00 | 0.00 | 0.00 | ||
| 20260510062018 | 86 | 0 | 3.0 | 8.0 | 0.00 | 0.00 | 0.00 | ||
| 20260510061509 | 86 | 0 | 4.0 | 7.0 | 0.00 | 0.00 | 0.00 | ||
| 20260510061009 | 86 | 0 | 2.0 | 8.0 | 0.00 | 0.00 | 0.00 | ||
| 20260510060508 | 85 | 0 | 4.0 | 8.0 | 0.00 | 0.00 | 0.00 | ||
| 20260510060012 | 85 | 359 | 4.0 | 8.0 | 0.00 | 0.00 | 0.00 | ||
| 20260510055515 | 85 | 0 | 4.0 | 7.0 | 0.00 | 0.00 | 0.00 | ||
| 20260510055016 | 85 | 0 | 2.0 | 6.0 | 0.00 | 0.00 | 0.00 | ||
| 20260510054511 | 85 | 358 | 3.0 | 6.0 | 0.00 | 0.00 | 0.00 | ||
| 20260510054017 | 85 | 0 | 1.0 | 5.0 | 0.00 | 0.00 | 0.00 | ||
| 20260510053516 | 85 | 0 | 1.0 | 3.0 | 0.00 | 0.00 | 0.00 | ||
| 20260510053016 | 85 | 0 | 1.0 | 2.0 | 0.00 | 0.00 | 0.00 | ||
| 20260510052458 | 86 | 0 | 1.0 | 3.0 | 0.00 | 0.00 | 0.00 | ||
| 20260510050957 | 86 | 357 | 3.0 | 5.0 | 0.00 | 0.00 | 0.00 | ||
| 20260510050458 | 86 | 0 | 2.0 | 3.0 | 0.00 | 0.00 | 0.00 | ||
| 20260510045958 | 86 | 0 | 1.0 | 3.0 | 0.00 | 0.00 | 0.00 | ||
| 20260510045520 | 86 | 0 | 1.0 | 3.0 | 0.00 | 0.00 | 0.00 | ||
| 20260510045013 | 87 | 0 | 0.0 | 2.0 | 0.00 | 0.00 | 0.00 | ||
| 20260510044500 | 87 | 0 | 1.0 | 3.0 | 0.00 | 0.00 | 0.00 | ||
| 20260510043007 | 88 | 0 | 1.0 | 3.0 | 0.00 | 0.00 | 0.00 | ||
| 20260510042506 | 88 | 0 | 2.0 | 3.0 | 0.00 | 0.00 | 0.00 | ||
| 20260510042007 | 88 | 0 | 0.0 | 1.0 | 0.00 | 0.00 | 0.00 | ||
| 20260510040956 | 89 | 0 | 0.0 | 2.0 | 0.00 | 0.00 | 0.00 | ||
| 20260510040457 | 89 | 0 | 1.0 | 3.0 | 0.00 | 0.00 | 0.00 | ||
| 20260510040000 | 90 | 350 | 1.0 | 3.0 | 0.00 | 0.00 | 0.00 | ||
| 20260510035500 | 90 | 312 | 0.0 | 3.0 | 0.00 | 0.00 | 0.00 | ||
| 20260510035000 | 90 | 269 | 1.0 | 2.0 | 0.00 | 0.00 | 0.00 | ||
| 20260510034522 | 91 | 250 | 0.0 | 2.0 | 0.00 | 0.00 | 0.00 | ||
| 20260510034010 | 91 | 266 | 1.0 | 3.0 | 0.00 | 0.00 | 0.00 | ||
| 20260510033510 | 91 | 276 | 0.0 | 3.0 | 0.00 | 0.00 | 0.00 | ||
| 20260510033010 | 92 | 292 | 2.0 | 3.0 | 0.00 | 0.00 | 0.00 | ||
| 20260510032510 | 92 | 193 | 1.0 | 3.0 | 0.00 | 0.00 | 0.00 | ||
| 20260510031509 | 93 | 0 | 0.0 | 6.0 | 0.00 | 0.00 | 0.00 | ||
| 20260510030511 | 93 | 223 | 1.0 | 7.0 | 0.00 | 0.00 | 0.00 | ||
| 20260510030011 | 94 | 359 | 3.0 | 8.0 | 0.00 | 0.00 | 0.00 | ||
| 20260510025512 | 94 | 328 | 5.0 | 8.0 | 0.00 | 0.00 | 0.00 | ||
| 20260510025016 | 94 | 354 | 4.0 | 8.0 | 0.00 | 0.00 | 0.00 | ||
| 20260510024506 | 94 | 356 | 2.0 | 6.0 | 0.00 | 0.00 | 0.00 | ||
| 20260510024008 | 95 | 0 | 3.0 | 5.0 | 0.00 | 0.00 | 0.00 | ||
| 20260510023510 | 95 | 0 | 1.0 | 4.0 | 0.00 | 0.00 | 0.00 | ||
| 20260510023009 | 95 | 0 | 1.0 | 4.0 | 0.00 | 0.00 | 0.00 | ||
| 20260510022510 | 95 | 0 | 2.0 | 4.0 | 0.00 | 0.00 | 0.00 | ||
| 20260510022013 | 96 | 359 | 2.0 | 4.0 | 0.00 | 0.00 | 0.00 | ||
| 20260510021506 | 96 | 351 | 0.0 | 3.0 | 0.00 | 0.00 | 0.00 | ||
| 20260510020506 | 97 | 100 | 2.0 | 4.0 | 0.00 | 0.00 | 0.00 | ||
| 20260510020008 | 97 | 237 | 0.0 | 4.0 | 0.00 | 0.00 | 0.00 | ||
| 20260510015510 | 98 | 296 | 1.0 | 9.0 | 0.00 | 0.00 | 0.00 | ||
| 20260510015012 | 98 | 0 | 2.0 | 9.0 | 0.00 | 0.00 | 0.00 | ||
| 20260510014008 | 99 | 357 | 7.0 | 14.0 | 0.00 | 0.00 | 0.00 | ||
| 20260510013509 | 99 | 0 | 4.0 | 10.0 | 0.00 | 0.00 | 0.00 | ||
| 20260510013009 | 99 | 351 | 3.0 | 10.0 | 0.00 | 0.00 | 0.00 | ||
| 20260510012511 | 99 | 359 | 5.0 | 9.0 | 0.00 | 0.00 | 0.00 | ||
| 20260510011520 | 100 | 0 | 6.0 | 11.0 | 0.00 | 0.00 | 0.00 | ||
| 20260510011013 | 100 | 349 | 5.0 | 10.0 | 0.00 | 0.00 | 0.00 | ||
| 20260510010514 | 100 | 0 | 4.0 | 11.0 | 0.00 | 0.00 | 0.00 | ||
| 20260510010017 | 100 | 344 | 6.0 | 13.0 | 0.00 | 0.00 | 0.00 | ||
| 20260510005458 | 100 | 0 | 5.0 | 13.0 | 0.00 | 0.00 | 0.00 | ||
| 20260510005002 | 100 | 359 | 6.0 | 10.0 | 0.00 | 0.00 | 0.00 | ||
| 20260510004525 | 100 | 359 | 6.0 | 10.0 | 0.00 | 0.00 | 0.00 | ||
| 20260510003515 | 100 | 0 | 6.0 | 14.0 | 0.00 | 0.00 | 0.00 | ||
| 20260510003015 | 100 | 0 | 7.0 | 14.0 | 0.00 | 0.00 | 0.00 | ||
| 20260510002457 | 100 | 352 | 7.0 | 12.0 | 0.00 | 0.00 | 0.00 | ||
| 20260510001524 | 100 | 359 | 7.0 | 14.0 | 0.00 | 0.00 | 0.00 | ||
| 20260510001014 | 100 | 359 | 8.0 | 14.0 | 0.00 | 0.00 | 0.00 | ||
| 20260509235501 | 100 | 0 | 8.0 | 14.0 | 0.00 | 0.00 | 0.00 | ||
| 20260509235023 | 100 | 358 | 7.0 | 19.0 | 0.00 | 0.00 | 0.00 | ||
| 20260509234457 | 100 | 359 | 13.0 | 19.0 | 0.00 | 0.00 | 0.00 | ||
| 20260509233957 | 100 | 358 | 8.0 | 13.0 | 0.00 | 0.00 | 0.00 | ||
| 20260509233458 | 100 | 357 | 5.0 | 12.0 | 0.00 | 0.00 | 0.00 | ||
| 20260509232503 | 100 | 352 | 4.0 | 18.0 | 0.00 | 0.00 | 0.00 | ||
| 20260509231501 | 101 | 357 | 5.0 | 15.0 | 0.00 | 0.00 | 0.00 | ||
| 20260509231005 | 101 | 350 | 6.0 | 12.0 | 0.00 | 0.00 | 0.00 | ||
| 20260509230506 | 101 | 0 | 6.0 | 18.0 | 0.00 | 0.00 | 0.00 | ||
| 20260509230006 | 101 | 356 | 4.0 | 18.0 | 0.00 | 0.00 | 0.00 | ||
| 20260509225009 | 101 | 359 | 9.0 | 17.0 | 0.00 | 0.00 | 0.00 | ||
| 20260509224459 | 101 | 357 | 1.0 | 14.0 | 0.00 | 0.00 | 0.00 | ||
| 20260509223957 | 101 | 351 | 5.0 | 15.0 | 0.00 | 0.00 | 0.00 | ||
| 20260509223458 | 101 | 334 | 5.0 | 15.0 | 0.00 | 0.00 | 0.00 | ||
| 20260509222502 | 101 | 275 | 3.0 | 12.0 | 0.00 | 0.00 | 0.00 | ||
| 20260509221457 | 101 | 355 | 7.0 | 9.0 | 0.00 | 0.00 | 0.00 | ||
| 20260509220957 | 101 | 258 | 2.0 | 7.0 | 0.00 | 0.00 | 0.00 | ||
| 20260509220002 | 101 | 0 | 4.0 | 9.0 | 0.00 | 0.00 | 0.00 | ||
| 20260509215503 | 101 | 342 | 1.0 | 8.0 | 0.00 | 0.00 | 0.00 | ||
| 20260509215007 | 101 | 348 | 4.0 | 9.0 | 0.00 | 0.00 | 0.00 | ||
| 20260509214459 | 101 | 355 | 3.0 | 9.0 | 0.00 | 0.00 | 0.00 | ||
| 20260509214018 | 101 | 354 | 5.0 | 14.0 | 0.00 | 0.00 | 0.00 | ||
| 20260509213456 | 101 | 346 | 8.0 | 14.0 | 0.00 | 0.00 | 0.00 | ||
| 20260509212502 | 101 | 266 | 6.0 | 13.0 | 0.00 | 0.00 | 0.00 | ||
| 20260509212023 | 101 | 357 | 1.0 | 13.0 | 0.00 | 0.00 | 0.00 | ||
| 20260509211000 | 101 | 0 | 6.0 | 13.0 | 0.00 | 0.00 | 0.00 | ||
| 20260509210503 | 100 | 359 | 5.0 | 9.0 | 0.00 | 0.00 | 0.00 | ||
| 20260509205013 | 100 | 345 | 1.0 | 5.0 | 0.00 | 0.00 | 0.00 | ||
| 20260509204505 | 100 | 285 | 3.0 | 5.0 | 0.00 | 0.00 | 0.00 | ||
| 20260509204004 | 100 | 354 | 1.0 | 9.0 | 0.00 | 0.00 | 0.00 | ||
| 20260509203507 | 100 | 358 | 3.0 | 9.0 | 0.00 | 0.00 | 0.00 | ||
| 20260509203008 | 100 | 0 | 2.0 | 4.0 | 0.00 | 0.00 | 0.00 | ||
| 20260509202511 | 100 | 0 | 1.0 | 7.0 | 0.00 | 0.00 | 0.00 | ||
| 20260509202012 | 100 | 0 | 2.0 | 8.0 | 0.00 | 0.00 | 0.00 |